Orbital Elements at Epoch 2459000.5 (2020-May-31.0) TDB
Reference: JPL 18 (heliocentric ecliptic J2000)
Element | Value | Uncertainty (1-sigma) | Units |
e | .0551812418759739 | 4.1042e-08 | |
a | 2.478820368847197 | 1.0073e-08 | au |
q | 2.342035982506749 | 1.0501e-07 | au |
i | 6.986756736184178 | 4.5139e-06 | deg |
node | 315.8888806554098 | 3.5573e-05 | deg |
peri | 98.55309202800696 | 5.8885e-05 | deg |
M | 233.8283708246922 | 4.7846e-05 | deg |
tp | 2459500.103211277180 (2021-Oct-12.60321128) | 0.00019072 | TDB |
period | 1425.496026605825 3.90 | 8.689e-06 2.379e-08 | d yr |
n | .2525436713122081 | 1.5394e-09 | deg/d |
Q | 2.615604755187646 | 1.0629e-08 | au |
|
| | Orbit Determination Parameters
Additional Information
|